< < Back
Terminal Aerodrome Forecast


Current Version              Previous Versions:   1  2  3  4  5  6  7  8  9  

Terminal Aerodrome Forecast

295
FTUS42 KILM 292337
TAFFLO
TAF
KFLO 292337Z 3000/3024 04006KT P6SM SCT250
     FM300400 VRB02KT P6SM OVC250
     FM301200 07006KT P6SM VCSH BKN050 BKN250
     FM301800 13007KT P6SM VCSH BKN050 OVC150=

Latest METAR

255
SAUS70 KWBC 300100 RRL
MTRFLO
METAR KFLO 300053Z 00000KT 10SM CLR 24/17 A3013 RMK AO2 SLP199
T02440167


USA.gov is the U.S. government's official web portal to all federal, state and local government web resources and services.